Weather Roundup
Issued by NWS Chicago, IL

Home | Current Version | Previous Version | Text Only | Print | Product List | Glossary On
Versions: 1 2 3 4 5 6 7 8 9 10 11 12 13 14 15 16 17 18 19 20 21 22 23 24 25 26 27 28 29 30 31 32 33 34 35 36 37 38 39 40 41 42 43 44 45 46 47 48 49 50
000
NZUS59 KLOT 070712
HRRLOT

CHICAGO AREA WEATHER ROUNDUP
NATIONAL WEATHER SERVICE CHICAGO/ROMEOVILLE IL
200 AM CDT TUE JUL 07 2015

NOTE: "FAIR" INDICATES FEW OR NO CLOUDS BELOW 12,000 FEET WITH NO
SIGNIFICANT WEATHER AND/OR OBSTRUCTIONS TO VISIBILITY.

* THESE STATIONS ARE NOT UNDER NWS QUALITY CONTROL. THEY ALSO MAY NOT
  REPORT WEATHER SUCH AS PRECIPITATION OR FOG.

ILZ005-006-012>014-019>023-070800-
NORTHEAST ILLINOIS

CITY           SKY/WX    TMP DP  RH WIND       PRES   REMARKS
OHARE          CLOUDY    71  69  93 SW8       29.83S
MIDWAY         CLOUDY    73  69  87 S6        29.85R
AURORA         CLOUDY    71  68  90 SW6       29.85S
LANSING*       LGT RAIN  73  67  84 SW5       29.86S
JOLIET*        LGT RAIN  72  71  97 S3        29.85F
WAUKEGAN       CLOUDY    70  69  97 SW7       29.81R
DUPAGE AIRPORT CLOUDY    71  68  90 SW8       29.84S
WHEELING       LGT RAIN  72  69  90 SW6       29.84R
KANKAKEE*      HVY RAIN  73  71  95 W8        29.88R
MORRIS*        LGT RAIN  71  70  96 SW3       29.83F
LEWIS AIRPORT* CLOUDY    71  70  97 SW6       29.85S
NORTHERLY IS     N/A     72  68  87 S8          N/A
$$

WIZ051-052-058>065-066-070>072-070800-
SOUTHEAST WISCONSIN

CITY           SKY/WX    TMP DP  RH WIND       PRES   REMARKS
MILWAUKEE      LGT RAIN  61  59  93 N10       29.84R
KENOSHA*       CLOUDY    72  68  87 W10       29.81F
RACINE*        CLOUDY    72  68  87 W6        29.82S
BURLINGTON     CLOUDY    63  62  96 NW15G22   29.84R
WAUKESHA       CLOUDY    61  59  94 N13G18    29.87R
WEST BEND      CLOUDY    59  55  88 N14G20    29.88R
$$

INZ001>003-010>013-019-020-070800-
NORTHWEST INDIANA

CITY           SKY/WX    TMP DP  RH WIND       PRES   REMARKS
GARY*          CLOUDY   N/A N/A N/A SW5       29.86S
MICHIGAN CITY* NOT AVBL
RENSSELAER*    NOT AVBL
VALPARAISO     CLOUDY    75  71  87 SW10      29.87S
$$

LMZ740>746-070800-
SOUTHERN LAKE MICHIGAN

STATION/POSITION TIME  SKY/WX   TEMP WIND        PRES    VSBY
                                AIR  DIR/SP/G
                 (UTC)          (F)  (DEG/KT/KT) (MB)    (MI)
HARRISON CRIB    0600            71  200/ 10/ 12   N/A
BURNHAM HARBOR   0700            72  210/  4/  8   N/A
CALUMET HARBOR   0600            72  210/  3/  6   N/A
BURNS HARBOR     0600            75  250/ 10/ 15 1011.5S
MICHIGAN CITY    0600            76  170/ 11/ 14   N/A
$$

ABBREVIATIONS USED IN REMARKS
   TC - TEMPERATURE IN CELSIUS
  WCI - WIND CHILL INDEX
   HX - HEAT INDEX
  VSB - VISIBILITY
$$


USA.gov is the U.S. government's official web portal to all federal, state and local government web resources and services.